Showing default

WGS 7 (USA 263), 40746

Orbit data source: Space-Track

WGS 7 (USA 263), 40746 is a payload satellite owned by USAF SMC (US) in GEO that was launched on Fri, 24 Jul 2015 UTC via a DELTA 4M+(5,4) launch vehicle from the Air Force Eastern Test Range (AFETR). Payload-class satellites include a variety of spacecraft equipped with specific instruments for various scientific and technological missions. These include communications satellites like Starlink; space stations such as the ISS; scientific satellites like the Hubble; Earth observation satellites from companies like Planet Labs, Umbra, and HawkEye 360; GPS; miniature CubeSats for education and research; and military/defense satellites.

Not visible in the next 10 days
Identifier
40746, 2015-036A
Orbit
GEO
Country
Flag of USUS
Related business
Manufacturer
Boeing/ES
Mission
Operational Defense Communications
Bus & Motor
BSS-702HP, R-4D-15-375
Mass
~5,900 kg wet, ~3,300 kg dry
Launch date (UTC)
2015-07-24 (11 years ago)
Launch vehicle
DELTA 4M+(5,4)
Launch site
Air Force Eastern Test Range (AFETR)
Object type
Payload
Rocket body
Debris
Shape & HBR
Box + 2 Pan, 20.4 m
Radar Cross Section
52.962 m², Large (>1 m²)

Expand to show TLE details & history
Last TLE update: 17 hours ago

TLE from 17 hours ago
0 WGS 7 (USA 263)
1 40746U 15036A   26061.34003130  .00000000  00000-0  00000-0 0  9995
2 40746   0.0158 115.8585 0000248 240.5297 101.1424  1.00270537 38800
Epoch: 2026-03-02T08:09Z
TLE epoch observation values (Epoch: 2026-03-02T08:09:38.704Z)
Latitude
-0.01856°
Longitude
175.02439°
Altitude
35,786.645 km
Speed
3.075 km/s
True Right ascension
06h 30m 16s
True Declination
0° 01' 07"
Sunlit
Object was in daylight at epoch
Visualization orbit readout
Latitude
Unknown
Longitude
Unknown
Altitude
Unknown
Speed
Unknown
Apparent Right ascension
Unknown
Apparent Declination
Unknown
Sunlit
N/A
Visualization observer readout
Local Sidereal Time
04:47:54
Azimuth
Unknown
Elevation
Unknown
Doppler factor
Unknown
Orbital elements
Apogee altitude
35,789.061 km
Perigee altitude
35,786.969 km
Semi-major axis
42,166.152 km
Eccentricity
0.00002
Inclination
0.0158°
RAAN
115.8585°
Arg. of periapsis
240.5297°
True anomaly
101.14519°
Mean anomaly
101.1424°
Eccentric anomaly
101.14379°
Mean motion
0.25067 °/min
Orbital period
1,436.17 mins
BSTAR
0
Loading maneuver chart data...
Computing Atmospheric mass density...
Loading historical data...
Loading historical data...
Loading historical data...
Loading historical data...
Loading historical data...
Loading historical data...
Loading historical data...
Other satellites on launch #36 in the year 2015 (2015-07-24 UTC)

Documentation

Showing up to 5 results
|